Flag for U.S.A. Weather past 2 weeks in Huntsville, Alabama, U.S.A.

Now
46 °F

Overcast.


Feels Like: 41 °F
Forecast: 40 / 48 °F
Wind: 9 mph from Northeast

Location: Huntsville International / Jones Field

Current Time: Mar 2, 2015 at 1:43:44 PM

Latest Report: Mar 2, 2015 at 12:53 PM


Visibility: 10 mi

Pressure: 30.34 "Hg

Humidity: 77%

Dew point: 39 °F

Location of HuntsvilleLocation

Historic Weather in Huntsville — Graph

°F

Huntsville temperature yesterday

Maximum temperature yesterday: 54 °F (at 11:53 AM)
Minimum temperature yesterday: 47 °F (at 5:53 AM)
Average temperature yesterday: 51 °F

Past Weeks' High & Low Weather Summary

 TemperatureHumidityPressure
High58 °F (Feb 21, 3:53 PM)100% (Feb 16, 3:04 PM)30.56 "Hg (Feb 16, 3:04 PM)
Low11 °F (Feb 19, 5:53 AM)24% (Feb 15, 1:53 PM)29.75 "Hg (Feb 16, 4:00 PM)
Average34 °F67%30.21 "Hg
* Reported Feb 15 11:53 AM — Mar 2 11:53 AM, Huntsville, Weather by CustomWeather, © 2015

Note: Actual official high and low records may vary slightly from our data, if they occured in-between our weather recording intervals... More about our weather records

Advertising

Huntsville weather history for previous 24 hours

 ConditionsComfort  
Time TempWeatherWind HumidityBarometerVisibility
11:53 AM
Mon, Mar 2
46 °FMore clouds than sun.9 mph77%30.39 "Hg10 mi
10:53 AM45 °FOvercast.13 mph80%30.40 "Hg10 mi
9:53 AM43 °FOvercast.10 mph82%30.42 "Hg10 mi
8:53 AM43 °FMore clouds than sun.12 mph82%30.41 "Hg10 mi
8:02 AM41 °FLow clouds.15 mph81%30.41 "Hg10 mi
7:53 AM41 °FMostly cloudy.14 mph82%30.42 "Hg10 mi
6:53 AM41 °FFog.14 mph89%30.40 "Hg5 mi
6:00 AM45 °FDrizzle. Fog.18 mph81%30.37 "Hg6 mi
4:53 AM50 °FFog.12 mph89%30.32 "Hg4 mi
3:53 AM50 °FLight rain. Fog.No wind93%30.30 "Hg1 mi
2:53 AM50 °FLight rain. Fog.No wind93%30.29 "Hg1 mi
1:53 AM50 °FFog.No wind93%30.31 "Hg1 mi
12:53 AM50 °FLight rain. Fog.3 mph93%30.32 "Hg1 mi
11:53 PM
Sun, Mar 1
50 °FLight rain. Fog.No wind93%30.32 "Hg1 mi
11:04 PM50 °FRain. Fog.5 mph94%30.32 "Hg1 mi
9:53 PM50 °FFog.5 mph93%30.32 "Hg2 mi
8:53 PM50 °FLight rain. Fog.3 mph93%30.33 "Hg2 mi
7:53 PM51 °FRain. Fog.6 mph89%30.31 "Hg2 mi
6:53 PM51 °FLight rain. Fog.7 mph89%30.31 "Hg3 mi
5:53 PM51 °FFog.7 mph92%30.33 "Hg3 mi
4:53 PM53 °FFog.3 mph89%30.32 "Hg3 mi
3:53 PM52 °FFog.9 mph93%30.31 "Hg3 mi
3:01 PM52 °FLight rain. Fog.7 mph88%30.34 "Hg2 mi
1:53 PM53 °FLight rain. Overcast.5 mph83%30.36 "Hg3 mi
Weather by CustomWeather, © 2015

See weather overviewHow to use our weather pages